SCP
0 0 0 0 0 0 0 0 0 0 0 0 0 0 0 0 0 0 0 0 0 0 0 0 0 0 0 0 0 0 0 0 0 0 0 0 0 0
0 0 0 0 0 0 0 0 0 0 0 0 0 0 0 0 0 0 0 0 0 0 0 0 0 0 0 0 0 0 0 0 0 0 0 0 0 0
0 0 0 0 0 0 0 0 0 0 0 0 0 0 0 0 0 0 0 0 0 0 0 0 0 0 0 0 0 0 0 0 0 0 0 0 0 0
0 0 0 0 0 0 0 0 0 0 0 0 0 0 0 0 0 0 0 0 0 0 0 0 0 0 0 0 0 0 0 0 0 0 0 0 0 0
0 0 0 0 0 0 0 0 0 0 0 0 0 0 0 0 0 0 0 0 0 0 0 0 0 0 0 0 0 0 0 0 0 0 0 0 0 0
0 0 0 0 0 0 0 0 0 0 0 0 0 0 0 0 0 0 0 0 0 0 0 0 0 0 0 0 0 0 0 0 0 0 0 0 0 0
0 0 0 0 0 0 0 0 0 0 0 0 0 0 0 0 0 0 0 0 0 0 0 0 0 0 0 0 0 0 0 0 0 0 0 0 0 0
0 0 0 0 0 0 0 0 0 0 0 0 0 0 0 0 0 0 0 0 0 0 0 0 0 0 0 0 0 0 0 0 0 0 0 0 0 0
0 0 0 0 0 0 0 0 0 0 0 0 0 0 0 0 0 0 0 0 0 0 0 0 0 0 0 0 0 0 0 0 0 0 0 0 0 0
0 0 0 0 0 0 0 0 0 0 0 0 0 0 0 0 0 0 0 0 0 0 0 0 0 0 0 0 0 0 0 0 0 0 0 0 0 0
0 0 0 0 0 0 0 0 0 0 0 0 0 0 0 0 0 0 0 0 0 0 0 0 0 0 0 0 0 0 0 0 0 0 0 0 0 0
0 0 0 0 0 0 0 0 0 0 0 0 0 0 0 0 0 0 0 0 0 0 0 0 0 0 0 0 0 0 0 0 0 0 0 0 0 0
0 0 0 0 0 0 0 0 0 0 0 0 0 0 0 0 0 0 0 0 0 0 0 0 0 0 0 0 0 0 0 0 0 0 0 0 0 0
0 0 0 0 0 0 0 0 0 0 0 0 0 0 0 0 0 0 0 0 0 0 0 0 0 0 0 0 0 0 0 0 0 0 0 0 0 0
0 0 0 0 0 0 0 0 0 0 0 0 0 0 0 0 0 0 0 0 0 0 0 0 0 0 0 0 0 0 0 0 0 0 0 0 0 0
0 0 0 0 0 0 0 0 0 0 0 0 0 0 0 0 0 0 0 0 0 0 0 0 0 0 0 0 0 0 0 0 0 0 0 0 0 0
0 0 0 0 0 0 0 0 0 0 0 0 0 0 0 0 0 0 0 0 0 0 0 0 0 0 0 0 0 0 0 0 0 0 0 0 0 0
0 0 0 0 0 0 0 0 0 0 0 0 0 0 0 0 0 0 0 0 0 0 0 0 0 0 0 0 0 0 0 0 0 0 0 0 0 0
0 0 0 0 0 0 0 0 0 0 0 0 0 0 0 0 0 0 0 0 0 0 0 0 0 0 0 0 0 0 0 0 0 0 0 0 0 0
0 0 0 0 0 0 0 0 0 0 0 0 0 0 0 0 0 0 0 0 0 0 0 0 0 0 0 0 0 0 0 0 0 0 0 0 0 0
0 0 0 0 0 0 0 0 0 0 0 0 0 0 0 0 0 0 0 0 0 0 0 0 0 0 0 0 0 0 0 0 0 0 0 0 0 0
0 0 0 0 0 0 0 0 0 0 0 0 0 0 0 0 0 0 0 0 0 0 0 0 0 0 0 0 0 0 0 0 0 0 0 0 0 0
0 0 0 0 0 0 0 0 0 0 0 0 0 0 0 0 0 0 0 0 0 0 0 0 0 0 0 0 0 0 0 0 0 0 0 0 0 0
Wind_Speed
1 1 2 2 2 2 2 3 4 6 5 5 4 3 3 3 1 3 4 8 11 12 13 15 18 20 21 22 22 22 23 23 23 23 23 23 23 23
2 2 3 3 3 3 3 4 4 5 6 4 4 4 5 7 9 6 6 13 13 15 15 15 17 19 20 22 22 23 23 23 23 23 23 23 23 23
4 4 4 4 3 4 4 4 4 4 6 6 5 5 5 5 6 6 7 7 7 13 14 14 15 17 19 21 22 22 23 23 23 23 23 23 23 23
5 5 5 5 5 4 4 5 5 5 5 7 6 6 6 6 7 7 8 9 6 12 15 16 16 16 17 19 20 20 20 20 22 23 23 23 23 22
5 5 5 5 5 4 5 5 5 6 5 6 7 5 5 6 7 8 8 6 9 11 13 12 13 14 16 17 19 19 19 19 19 21 22 22 22 22
5 5 5 4 4 4 5 5 5 6 6 6 6 6 6 6 5 5 6 5 6 9 10 11 12 14 14 16 17 18 17 17 18 18 18 19 19 20
6 6 6 6 6 4 5 5 6 6 7 7 7 7 6 5 5 5 7 6 6 6 5 6 7 6 7 10 13 14 14 14 15 15 16 16 16 17
7 6 7 6 4 5 9 10 10 9 8 8 8 8 8 7 6 6 6 7 5 4 5 7 6 6 6 6 8 10 11 12 12 13 14 14 15 15
7 6 7 6 5 5 7 10 11 13 13 10 10 10 9 7 6 7 7 7 7 6 6 7 6 6 6 7 8 9 9 10 11 11 12 13 13 14
6 6 5 4 5 6 9 9 9 8 8 7 7 8 8 6 5 6 7 7 7 5 4 5 5 6 8 6 7 7 9 10 11 12 12 12 12 12
7 6 5 4 5 8 9 9 10 8 9 11 10 10 11 11 8 5 6 6 6 5 3 3 5 7 7 5 5 8 10 11 12 12 12 11 11 10
7 5 4 5 7 9 8 9 10 9 10 11 9 8 7 6 7 5 4 5 5 4 2 3 4 4 5 4 5 5 6 8 11 11 11 11 9 6
8 6 4 7 10 11 9 8 9 10 10 9 7 6 4 3 3 3 3 3 4 4 3 3 3 3 4 5 5 5 6 6 6 6 7 9 9 7
7 6 7 11 13 14 10 10 13 11 7 6 5 4 3 4 3 4 4 3 3 4 5 4 3 4 4 5 5 6 7 5 5 4 4 4 5 8
6 10 13 14 13 9 9 12 10 6 5 4 4 3 3 3 3 3 4 3 3 3 3 3 3 3 4 4 6 5 5 5 5 5 4 3 2 1
8 10 12 11 9 8 8 6 3 4 4 4 4 3 3 3 3 3 3 3 3 3 4 4 2 2 3 6 5 6 6 6 6 6 4 3 3 3
9 6 5 6 6 5 5 5 4 4 3 3 3 3 3 3 3 3 3 3 4 5 5 5 2 1 3 5 6 7 7 5 6 6 4 4 4 4
7 5 6 6 7 7 6 6 5 4 4 3 3 3 3 3 3 3 3 3 3 4 4 5 5 3 2 1 5 8 7 6 6 6 5 4 5 6
4 5 6 6 7 7 6 6 5 5 4 3 3 2 2 2 2 2 3 3 3 3 3 4 4 5 6 6 5 8 8 6 6 5 5 4 4 5
5 5 6 6 7 6 6 6 5 5 4 4 3 3 2 2 2 2 2 3 3 3 3 3 3 4 4 4 4 5 10 8 6 6 5 3 3 4
6 6 6 6 6 6 6 5 5 4 4 4 3 3 2 2 2 2 1 2 2 2 3 3 2 1 1 1 2 4 4 8 9 7 6 4 4 5
5 6 6 7 6 6 5 5 5 5 5 5 4 3 3 3 3 3 3 2 2 2 2 1 1 1 1 3 3 4 4 4 6 11 13 11 5 5
6 6 6 7 6 6 5 6 6 6 5 5 5 5 4 4 3 3 3 3 2 2 2 2 1 1 1 2 2 2 3 3 3 5 6 10 11 10
Wind_Direction
2 357 336 322 320 323 306 296 300 303 302 313 321 344 353 355 11 322 311 305 299 289 276 267 270 274 277 278 279 279 278 277 277 276 276 276 275 273
353 356 347 338 342 322 317 313 302 295 297 307 315 340 353 332 321 322 304 298 290 282 273 267 265 266 270 274 275 275 275 275 274 274 273 272 272 270
354 357 352 332 325 333 324 315 314 320 312 310 315 320 327 317 309 300 294 284 279 280 279 275 268 263 264 267 270 271 272 273 273 273 273 272 272 270
351 343 336 334 343 327 324 321 318 313 303 306 308 307 307 303 293 291 296 294 292 290 283 275 270 266 264 264 264 265 265 266 267 269 270 270 270 269
341 336 330 324 319 325 323 312 309 309 308 300 299 297 296 295 298 295 293 291 294 296 293 289 284 278 272 268 263 261 258 257 258 260 263 265 266 266
327 318 310 313 317 329 314 309 315 318 308 299 295 295 292 290 292 298 300 294 296 301 300 299 295 290 281 275 269 267 263 257 253 253 253 255 257 259
319 312 309 306 295 283 293 310 311 304 302 298 297 297 295 302 305 304 301 300 292 287 298 298 296 291 290 286 282 277 272 265 258 252 250 249 248 248
314 316 310 300 306 278 276 280 277 281 289 293 294 294 297 302 307 307 303 305 300 296 305 301 298 298 295 289 291 289 281 274 267 261 255 250 245 244
310 313 318 336 359 352 326 303 286 275 264 265 278 284 294 302 307 305 304 304 299 300 303 297 300 301 300 305 302 291 287 284 276 269 263 256 248 243
318 317 326 345 28 356 325 313 306 305 299 287 274 282 293 301 302 296 293 295 292 295 306 295 304 307 307 301 295 292 294 292 286 279 271 262 252 246
327 337 345 3 19 348 325 315 314 316 319 321 306 294 291 287 281 291 296 302 306 308 319 300 303 310 302 298 306 309 304 298 292 284 275 265 255 248
330 343 9 359 339 332 323 314 312 318 323 318 314 309 297 284 272 260 278 296 304 301 329 315 298 314 306 301 312 312 310 305 298 288 278 267 254 243
328 333 337 339 328 319 311 294 297 309 308 304 310 313 319 318 308 290 274 276 295 295 308 314 296 302 290 299 304 311 315 312 308 299 286 270 250 232
321 329 331 326 319 312 306 297 304 307 298 304 312 317 326 331 330 324 311 293 273 276 290 300 293 311 313 303 303 313 316 317 319 316 312 290 258 242
327 328 323 318 316 310 308 307 306 301 307 317 323 329 330 328 329 331 331 325 314 309 313 308 307 320 329 315 316 316 316 318 332 331 329 332 320 274
340 326 320 314 312 306 307 310 303 304 309 311 316 323 334 346 350 346 343 342 343 339 342 346 345 17 358 336 328 329 330 331 335 338 340 353 1 4
324 314 324 333 339 341 337 332 333 333 333 338 341 346 357 2 360 357 357 356 358 356 354 352 352 127 105 14 348 341 338 339 344 347 352 7 16 14
326 332 339 341 342 341 338 337 339 342 341 346 349 354 4 7 8 12 15 10 3 358 357 355 354 353 334 68 25 352 345 342 347 355 0 9 19 15
338 341 343 339 337 335 332 333 334 336 336 345 351 358 3 15 20 20 16 9 2 358 358 2 8 9 12 6 357 8 359 349 351 2 11 16 16 13
350 343 339 332 330 329 330 332 335 341 346 352 357 359 0 9 21 22 22 8 357 357 6 12 16 14 13 353 338 351 9 9 359 360 357 360 10 2
344 338 331 327 327 329 331 334 337 342 351 353 355 356 352 3 15 16 26 359 346 4 15 12 347 316 305 335 11 14 15 23 28 21 360 358 5 14
337 333 329 326 328 331 335 342 349 356 1 358 352 352 356 9 17 12 8 7 4 9 13 3 332 346 20 33 31 27 27 23 32 40 40 37 27 21
330 329 325 326 332 337 342 350 360 2 4 358 354 353 2 7 6 3 1 5 1 8 8 1 6 20 37 49 46 45 45 39 35 36 35 28 41 49